Regional Weather Roundup
Issued by NWS

Home | Current Version | Previous Version | Graphics & Text | Print | Product List | Glossary On
Versions: 1 2 3 4 5 6 7 8 9 10 11 12 13 14 15 16 17 18 19 20 21 22 23 24 25 26 27 28 29 30 31 32 33 34 35 36 37 38 39 40 41 42 43 44 45 46 47 48 49 50
000
ASUS45 KCYS 311810
RWRWY

WYOMING REGIONAL WEATHER ROUNDUP
NATIONAL WEATHER SERVICE CHEYENNE WY
1200 PM MDT FRI JUL 31 2015

NOTE:  "FAIR" INDICATES FEW OR NO CLOUDS BELOW 12,000 FEET
WITH NO SIGNIFICANT WEATHER AND/OR OBSTRUCTIONS TO VISIBILITY.

WYZ001-311900-
YELLOWSTONE NATIONAL PARK

CITY           SKY/WX    TMP DP  RH WIND       PRES   REMARKS
LK YELLOWSTONE   N/A     63  43  48 VRB3      30.53S
6HR MIN TEMP:  36; 6HR MAX TEMP:  64;

W YELLOWSTONE  NOT AVBL

$$
WYZ002>013-054>058-071-098>099-311900-
NORTHERN WYOMING

CITY           SKY/WX    TMP DP  RH WIND       PRES   REMARKS
JACKSON        SUNNY     70  37  30 CALM      30.43F
CODY           FAIR      82  36  18 CALM      30.28F
GREYBULL       FAIR      85  35  16 E3        30.21F
6HR MIN TEMP:  54; 6HR MAX TEMP:  86;

WORLAND        FAIR      86  34  15 VRB6      30.23F
6HR MIN TEMP:  50; 6HR MAX TEMP:  86;

SHERIDAN       FAIR      87  42  20 VRB3      30.23F
6HR MIN TEMP:  49; 6HR MAX TEMP:  88;

BUFFALO        FAIR      84  36  18 MISG      30.29F
6HR MIN TEMP:  62; 6HR MAX TEMP:  86;

GILLETTE       FAIR      86  39  19 S5        30.24F
6HR MIN TEMP:  59; 6HR MAX TEMP:  87;

HULETT         FAIR      82  45  26 E9        30.27F
NEWCASTLE      FAIR      82  45  26 SE6       30.26F

$$
WYZ014>020-022>026-101>103-311900-
CENTRAL WYOMING

CITY           SKY/WX    TMP DP  RH WIND       PRES   REMARKS
BIG PINEY      FAIR      76  28  17 W5        30.44F
6HR MIN TEMP:  38; 6HR MAX TEMP:  76;

PINEDALE       FAIR      75  23  14 CALM      30.45S
DUBOIS         FAIR      75  23  14 CALM      30.44F
LANDER         FAIR      80  32  17 E3        30.32F
6HR MIN TEMP:  56; 6HR MAX TEMP:  81;

RIVERTON       FAIR      81  33  17 N8        30.33F
6HR MIN TEMP:  53; 6HR MAX TEMP:  81;

CASPER         FAIR      86  38  18 E6        30.30F
6HR MIN TEMP:  45; 6HR MAX TEMP:  86;

DOUGLAS        FAIR      87  35  15 CALM      30.29F
6HR MIN TEMP:  50; 6HR MAX TEMP:  88;


$$
WYZ021-027>030-104>119-311900-
SOUTHERN WYOMING

CITY           SKY/WX    TMP DP  RH WIND       PRES   REMARKS
EVANSTON       FAIR      79  26  14 N12       30.44F
6HR MIN TEMP:  49; 6HR MAX TEMP:  80;

KEMMERER       FAIR      79  21  11 W13       30.45F
FORT BRIDGER   CLEAR     81  23  12 NE3       30.46S
ROCK SPRINGS   FAIR      76  31  19 VRB3      30.41F
6HR MIN TEMP:  50; 6HR MAX TEMP:  76;

DIXON          FAIR      83  31  15 SW5       30.39F
RAWLINS        FAIR      82  21  10 E8        30.40F
6HR MIN TEMP:  44; 6HR MAX TEMP:  83;

SARATOGA       FAIR      81  32  17 NE5       30.42F
LARAMIE        FAIR      79  40  24 VRB5      30.42F
6HR MIN TEMP:  44; 6HR MAX TEMP:  80;

CHEYENNE       FAIR      81  53  37 S16G24    30.37F
6HR MIN TEMP:  55; 6HR MAX TEMP:  82;

TORRINGTON     FAIR      85  58  39 E8        30.24F
6HR MIN TEMP:  55; 6HR MAX TEMP:  85;

PINE BLUFFS    FAIR      84  50  30 S14G21    30.33S

$$


USA.gov is the U.S. government's official web portal to all federal, state and local government web resources and services.